Fort Knox, KY

4:59 PM EDT on May 23, 2018 (GMT -0400)
Godman Army Air Field

Weather History for KFTK - December, 2012

Change the Weather History Date:

Friday, December 7, 2012

  Actual Average Record
Temperature  
Mean Temperature 54 °F -  
Max Temperature 57 °F 46 °F 69 °F (1998)
Min Temperature 50 °F 30 °F 14 °F (2010)
Degree Days  
Heating Degree Days 12    
Growing Degree Days 4 (Base 50)    
Moisture  
Dew Point 54 °F    
Average Humidity 99    
Maximum Humidity 100    
Minimum Humidity 94    
Precipitation  
Precipitation 0.80 in - - ()
Sea Level Pressure  
Sea Level Pressure 29.92 in    
Wind  
Wind Speed 5 mph (South)    
Max Wind Speed 9 mph    
Max Gust Speed -    
Visibility 3 miles    
Events Rain    
Averages and records for this station are not official NWS values.
T = Trace of Precipitation, MM = Missing Value Source: NWS Daily Summary

Daily Weather History Graph

Daily Weather History Graph

Search for Another Location

Airport or City:

Astronomy

Dec. 07, 2012 Rise Set
Actual Time 7:46 AM EST 5:24 PM EST
Civil Twilight 7:17 AM EST 5:53 PM EST
Nautical Twilight 6:44 AM EST 6:26 PM EST
Astronomical Twilight 6:12 AM EST 6:58 PM EST
Moon 1:10 AM EST (12/7) 1:16 PM EST (12/7)
Length of Visible Light 10h 36m
Length of Day
9h 37m
Last Quarter, 39% of the Moon is Illuminated
Dec 7
Last Quarter
Dec 13
New
Dec 20
First Quarter
Dec 28
Full
Jan 4
Last Quarter

Hourly Weather History & Observations

Time (EST) Temp. Dew Point Humidity Pressure Visibility Wind Dir Wind Speed Gust Speed Precip Events Conditions
12:48 AM 50.0 °F 50.0 °F 100% 29.97 in 3.0 mi SSW 3.5 mph - N/A Rain Light Rain
12:55 AM 50.9 °F 50.4 °F 98% 29.98 in 3.0 mi South 2.3 mph - 0.02 in Rain Light Rain
1:55 AM 51.8 °F 51.6 °F 99% 29.98 in 3.0 mi South 5.8 mph - 0.02 in Rain Light Rain
2:55 AM 51.8 °F 51.6 °F 99% 29.98 in 3.0 mi SSE 5.8 mph - 0.22 in Rain Light Rain
3:09 AM 51.8 °F 51.8 °F 100% 29.96 in 2.5 mi SE 2.3 mph - N/A Rain Light Rain
3:55 AM 52.0 °F 51.6 °F 99% 29.97 in 2.0 mi ESE 4.6 mph - 0.03 in Rain Light Rain
4:55 AM 51.6 °F 51.6 °F 100% 29.97 in 2.0 mi Calm Calm - 0.01 in Rain Light Rain
5:55 AM 51.4 °F 51.4 °F 100% 29.97 in 3.0 mi ESE 3.5 mph - 0.04 in Rain Light Rain
6:19 AM 51.8 °F 51.8 °F 100% 29.95 in 2.5 mi ESE 3.5 mph - N/A Rain Light Rain
6:55 AM 51.4 °F 51.4 °F 100% 29.97 in 2.5 mi SE 4.6 mph - 0.04 in Rain Light Rain
7:55 AM 51.4 °F 51.4 °F 100% 30.04 in 2.5 mi SE 4.6 mph - 0.04 in Rain Light Rain
8:59 AM 51.4 °F 51.4 °F 100% 30.04 in 2.5 mi SE 4.6 mph - 0.04 in Rain Light Rain
9:55 AM 51.3 °F 51.1 °F 99% 29.96 in 4.0 mi ESE 4.6 mph - 0.06 in Rain Light Rain
10:12 AM 51.8 °F 51.8 °F 100% 29.95 in 4.0 mi SE 4.6 mph - N/A   Overcast
10:55 AM 52.7 °F 51.6 °F 96% 29.95 in 10.0 mi South 6.9 mph - 0.01 in   Overcast
11:55 AM 53.8 °F 52.3 °F 95% 29.93 in 10.0 mi South 5.8 mph - N/A   Overcast
12:14 PM 53.6 °F 51.8 °F 94% 29.90 in 2.5 mi South 6.9 mph - N/A Rain Light Rain
12:55 PM 53.8 °F 52.9 °F 97% 29.90 in 2.0 mi South 5.8 mph - 0.08 in Rain Heavy Rain
12:56 PM 53.6 °F 53.6 °F 100% 29.97 in 2.0 mi South 5.8 mph - N/A Rain Rain
1:10 PM 53.6 °F 53.6 °F 100% 29.89 in 2.5 mi South 6.9 mph - N/A Rain Light Rain
1:55 PM 54.3 °F 53.8 °F 98% 29.88 in 7.0 mi South 5.8 mph - 0.12 in Rain Light Rain
1:57 PM 53.6 °F 53.6 °F 100% 29.95 in 2.5 mi SSW 6.9 mph - N/A Rain Light Rain
2:55 PM 55.2 °F 54.7 °F 98% 29.87 in 2.0 mi South 6.9 mph - 0.02 in Rain Light Rain
3:27 PM 55.4 °F 55.4 °F 100% 29.85 in 2.5 mi South 6.9 mph - N/A   Overcast
3:55 PM 55.8 °F 55.2 °F 98% 29.86 in 2.0 mi South 5.8 mph - 0.02 in Rain Light Rain
4:05 PM 55.4 °F 55.4 °F 100% 29.85 in 2.0 mi SSW 5.8 mph - N/A Rain Light Rain
4:37 PM 55.4 °F 55.4 °F 100% 29.85 in 1.5 mi SSW 5.8 mph - N/A Rain Light Rain
4:48 PM 55.4 °F 55.4 °F 100% 29.85 in 1.5 mi South 4.6 mph - N/A Rain Light Rain
4:55 PM 56.1 °F 55.6 °F 98% 29.87 in 1.2 mi SSW 5.8 mph - 0.02 in Rain Light Rain
5:12 PM 55.4 °F 55.4 °F 100% 29.85 in 1.5 mi SSW 6.9 mph - N/A   Overcast
5:55 PM 55.9 °F 55.4 °F 98% 29.87 in 2.0 mi South 6.9 mph - 0.00 in   Light Drizzle
6:44 PM 55.4 °F 55.4 °F 100% 29.86 in 3.0 mi SSW 6.9 mph - N/A   Overcast
6:55 PM 55.9 °F 55.6 °F 99% 30.02 in 4.0 mi SSW 6.9 mph - 0.01 in   Overcast
7:55 PM 55.6 °F 55.2 °F 99% 29.87 in 4.0 mi SSW 5.8 mph - N/A   Overcast
8:55 PM 55.8 °F 55.4 °F 99% 29.88 in 3.0 mi WSW 4.6 mph - N/A   Overcast
9:21 PM 55.4 °F 55.4 °F 100% 29.88 in 2.0 mi WSW 6.9 mph - N/A Rain Light Rain
9:55 PM 56.1 °F 55.6 °F 98% 29.89 in 2.0 mi WSW 4.6 mph - 0.00 in Rain Light Rain
10:29 PM 57.2 °F 55.4 °F 94% 29.87 in 3.0 mi WSW 6.9 mph - N/A   Overcast
10:55 PM 56.5 °F 55.6 °F 97% 29.88 in 3.0 mi SSW 5.8 mph - 0.00 in   Overcast
11:37 PM 55.4 °F 55.4 °F 100% 29.87 in 5.0 mi SSW 9.2 mph - N/A   Overcast
11:55 PM 55.9 °F 55.0 °F 97% 29.88 in 10.0 mi SSW 9.2 mph - N/A   Overcast